DW6222 Weather Reports


Display with metric or nautical units.
time (UTC)temp
F
wind
direction
speed
MPH
gust
MPH
rain 1hr
in
rain 24hr
in
rain mn
in
humidity
%
barometer
mb
20260831060106 69 43 2.0 6.0 0.00 0.01 0.00 95 1010.2
20260831054554 69 87 2.0 4.0 0.00 0.01 0.00 95 1010.2
20260831053046 69 87 2.0 5.0 0.00 0.01 0.00 95 1010.0
20260831051604 68 88 2.0 6.0 0.00 0.01 0.00 95 1010.1
20260831050103 69 55 3.0 8.0 0.00 0.01 0.00 95 1010.5
20260831044548 69 59 4.0 10.0 0.00 0.01 0.01 94 1010.6
20260831043057 69 49 3.0 9.0 0.00 0.01 0.01 93 1010.6
20260831041551 70 67 2.0 5.0 0.00 0.01 0.01 93 1010.7
20260831040058 69 63 6.0 10.0 0.00 0.01 0.01 93 1010.9
20260831034555 69 82 6.0 9.0 0.00 0.01 0.01 93 1011.0
20260831033055 69 115 4.0 12.0 0.00 0.01 0.01 94 1011.1
20260831031559 69 82 8.0 12.0 0.00 0.01 0.01 94 1010.7
20260831030111 69 101 7.0 11.0 0.00 0.01 0.01 94 1011.0
20260831024636 69 105 6.0 13.0 0.00 0.01 0.01 94 1010.9
20260831023052 69 119 7.0 12.0 0.00 0.01 0.01 94 1010.9
20260831021544 69 117 7.0 14.0 0.00 0.01 0.01 94 1010.9
20260831020059 68 105 4.0 10.0 0.00 0.01 0.01 94 1010.8
20260831014554 68 102 6.0 11.0 0.00 0.01 0.01 95 1010.8
20260831013109 67 67 2.0 11.0 0.00 0.01 0.01 95 1011.0
20260831011550 67 39 4.0 9.0 0.00 0.01 0.01 94 1011.0
20260831010100 68 38 3.0 7.0 0.00 0.01 0.01 94 1011.1
20260831004557 68 53 5.0 9.0 0.00 0.01 0.01 94 1011.0
20260831003051 68 28 5.0 14.0 0.00 0.01 0.01 94 1011.0
20260831001546 68 43 6.0 10.0 0.00 0.01 0.01 94 1011.0
20260831000045 68 69 5.0 9.0 0.00 0.01 0.01 93 1011.1
20260830234609 68 11 3.0 7.0 0.00 0.01 0.01 94 1011.4
20260830233048 68 50 4.0 9.0 0.00 0.01 0.01 94 1011.3
20260830231600 68 30 4.0 10.0 0.00 0.01 0.01 94 1011.2
20260830230045 68 13 6.0 11.0 0.00 0.01 0.01 93 1011.1
20260830224555 69 5 5.0 11.0 0.00 0.01 0.01 93 1011.2
20260830223048 69 18 4.0 11.0 0.00 0.01 0.01 92 1011.2
20260830221556 70 30 5.0 12.0 0.00 0.01 0.01 91 1011.2
20260830220057 70 69 2.0 14.0 0.00 0.01 0.01 90 1011.4
20260830214549 69 34 5.0 12.0 0.00 0.01 0.01 91 1011.4
20260830213050 69 52 5.0 12.0 0.00 0.01 0.01 91 1011.5
20260830211551 69 78 4.0 13.0 0.00 0.01 0.01 91 1011.6
20260830210058 69 47 4.0 11.0 0.00 0.01 0.01 92 1011.9
20260830204557 68 58 7.0 14.0 0.00 0.01 0.01 93 1011.7
20260830203113 69 58 6.0 18.0 0.00 0.01 0.01 92 1011.8
20260830201613 69 36 7.0 14.0 0.00 0.01 0.01 90 1011.7
20260830200056 69 55 6.0 14.0 0.00 0.01 0.01 91 1011.8
20260830194555 69 78 8.0 15.0 0.00 0.01 0.01 91 1011.8
20260830193107 68 88 8.0 17.0 0.00 0.01 0.01 92 1011.7
20260830191601 67 91 6.0 17.0 0.00 0.01 0.01 94 1011.6
20260830190058 66 82 6.0 12.0 0.00 0.01 0.01 95 1011.8
20260830184551 67 48 7.0 13.0 0.00 0.01 0.01 94 1012.1
20260830183101 67 84 7.0 14.0 0.00 0.01 0.01 94 1012.0
20260830181611 67 111 8.0 12.0 0.00 0.01 0.01 94 1012.0
20260830180058 67 69 4.0 11.0 0.00 0.01 0.01 95 1012.1
20260830174605 67 42 3.0 11.0 0.01 0.01 0.01 96 1012.2
20260830173110 67 72 6.0 12.0 0.01 0.01 0.01 97 1011.6
20260830171614 66 59 2.0 7.0 0.01 0.01 0.01 96 1012.2
20260830170059 66 52 4.0 10.0 0.01 0.01 0.01 95 1012.3
20260830164609 66 63 4.0 8.0 0.00 0.00 0.00 95 1012.7
20260830163059 67 63 3.0 9.0 0.00 0.00 0.00 94 1012.7
20260830161558 67 38 3.0 6.0 0.00 0.00 0.00 94 1013.1
20260830160057 67 69 2.0 7.0 0.00 0.00 0.00 94 1012.9
20260830154552 67 91 4.0 14.0 0.00 0.01 0.00 94 1012.2
20260830153050 67 78 5.0 13.0 0.00 0.01 0.00 95 1012.0
20260830151558 67 84 4.0 12.0 0.00 0.01 0.00 95 1012.0
20260830150056 66 59 5.0 11.0 0.00 0.01 0.00 95 1012.2
20260830144601 66 92 6.0 13.0 0.00 0.02 0.00 95 1011.7
20260830143051 66 99 5.0 12.0 0.00 0.02 0.00 95 1011.8
20260830141545 66 10 6.0 11.0 0.00 0.02 0.00 94 1012.0
20260830140057 66 50 3.0 9.0 0.00 0.02 0.00 93 1012.2
20260830134551 66 46 4.0 10.0 0.00 0.04 0.00 94 1012.2
20260830133122 66 46 3.0 6.0 0.00 0.04 0.00 95 1012.2
20260830131600 66 59 4.0 9.0 0.00 0.04 0.00 95 1012.0
20260830130044 66 42 1.0 8.0 0.00 0.04 0.00 96 1012.1
20260830124608 66 107 2.0 7.0 0.00 0.04 0.00 96 1011.8
20260830123052 65 95 3.0 9.0 0.00 0.04 0.00 97 1011.9
20260830121546 65 80 5.0 10.0 0.00 0.04 0.00 97 1011.8
20260830120048 65 84 3.0 8.0 0.00 0.04 0.00 97 1011.7
20260830114559 65 73 2.0 6.0 0.00 0.04 0.00 97 1011.6
20260830113050 65 107 2.0 7.0 0.00 0.04 0.00 96 1011.6
20260830111546 65 86 1.0 4.0 0.00 0.04 0.00 96 1011.8
20260830110046 65 49 3.0 6.0 0.00 0.04 0.00 95 1011.5
20260830104558 65 32 2.0 7.0 0.00 0.04 0.00 96 1011.4
20260830103049 65 76 3.0 8.0 0.00 0.04 0.00 96 1011.4
20260830101544 65 53 3.0 8.0 0.00 0.04 0.00 96 1011.4
20260830100044 65 59 4.0 8.0 0.00 0.04 0.00 96 1011.2
20260830094555 65 71 3.0 7.0 0.00 0.04 0.00 96 1011.2
20260830093048 65 39 2.0 5.0 0.00 0.04 0.00 96 1011.3
20260830091546 65 81 1.0 4.0 0.00 0.04 0.00 96 1011.2
20260830090059 65 0 1.0 2.0 0.00 0.04 0.00 96 1011.2
20260830084603 65 89 2.0 5.0 0.00 0.04 0.00 97 1011.2
20260830083107 64 105 0.0 3.0 0.00 0.04 0.00 97 1011.3
20260830081548 64 0 0.0 0.0 0.00 0.04 0.00 96 1011.2
20260830080047 65 0 0.0 0.0 0.00 0.04 0.00 96 1011.0
20260830074554 64 0 0.0 0.0 0.00 0.04 0.00 96 1011.2
20260830073101 64 105 0.0 3.0 0.00 0.04 0.00 96 1011.2
20260830071549 64 105 1.0 3.0 0.00 0.04 0.00 95 1011.1
20260830070105 64 105 0.0 3.0 0.00 0.04 0.00 96 1011.2
20260830064559 64 105 2.0 3.0 0.00 0.04 0.00 96 1011.5
20260830063057 64 105 1.0 4.0 0.00 0.04 0.00 95 1011.9
20260830061606 64 105 1.0 3.0 0.00 0.04 0.00 95 1012.1